GW0410 Weather Reports


time (UTC)temp
F
wind
direction
speed
knots
gust
knots
rain 1hr
in
rain 24hr
in
rain mn
in
humidity
%
barometer
mb
20260505153052 80 146 1.7 6.1 0.00 0.00 0.00 37 1006.4
20260505152021 81 182 1.7 3.5 0.00 0.00 0.00 35 1006.4
20260505151053 83 138 1.7 6.1 0.00 0.00 0.00 33 1006.8
20260505125021 80 177 0.9 4.3 0.00 0.00 0.00 36 1008.6
20260505124024 79 148 2.6 7.0 0.00 0.00 0.00 37 1008.5
20260505123024 79 152 1.7 4.3 0.00 0.00 0.00 37 1008.8
20260505122027 76 184 1.7 6.1 0.00 0.00 0.00 38 1008.8
20260505121028 76 145 0.9 3.5 0.00 0.00 0.00 40 1008.5
20260505120027 77 158 2.6 7.0 0.00 0.00 0.00 40 1008.8
20260505115022 77 195 3.5 7.0 0.00 0.00 0.00 38 1008.8
20260505114028 78 125 1.7 3.5 0.00 0.00 0.00 39 1008.9
20260505113045 78 111 2.6 5.2 0.00 0.00 0.00 41 1008.9
20260505112028 78 142 1.7 4.3 0.00 0.00 0.00 39 1008.9
20260505111026 79 201 1.7 6.1 0.00 0.00 0.00 38 1009.2
20260505102043 76 170 1.7 5.2 0.00 0.00 0.00 42 1009.2
20260505101022 77 201 1.7 4.3 0.00 0.00 0.00 41 1009.2
20260505100533 76 221 0.9 5.2 0.00 0.00 0.00 42 1009.6
20260505095034 77 203 1.7 7.0 0.00 0.00 0.00 42 1009.6
20260505094027 75 234 0.9 2.6 0.00 0.00 0.00 42 1009.9
20260505093025 74 122 1.7 5.2 0.00 0.00 0.00 44 1009.9
20260505092021 73 180 0.0 2.6 0.00 0.00 0.00 46 1009.8
20260505091025 72 197 1.7 7.0 0.00 0.00 0.00 46 1010.1
20260505090027 72 193 0.9 3.5 0.00 0.00 0.00 46 1010.1
20260505085022 71 225 1.7 7.8 0.00 0.00 0.00 46 1010.2
20260505084027 71 170 0.9 3.5 0.00 0.00 0.00 47 1010.2
20260505083028 71 181 2.6 7.0 0.00 0.00 0.00 45 1010.2
20260505082028 70 181 0.9 4.3 0.00 0.00 0.00 47 1010.2
20260505081027 69 210 0.9 3.5 0.00 0.00 0.00 49 1010.2
20260505080028 68 179 0.9 5.2 0.00 0.00 0.00 49 1010.5
20260505075024 69 194 0.9 5.2 0.00 0.00 0.00 50 1010.6
20260505074029 70 171 0.9 5.2 0.00 0.00 0.00 49 1010.3
20260505073025 71 214 0.0 2.6 0.00 0.00 0.00 50 1010.6
20260505072045 70 351 0.0 0.0 0.00 0.00 0.00 49 1010.7
20260505071043 68 192 0.0 1.7 0.00 0.00 0.00 49 1010.6
20260505070023 67 111 0.0 0.9 0.00 0.00 0.00 52 1010.6
20260505065026 64 0.0 0.0 0.00 0.00 0.00 56 1010.6
20260505064023 63 0.0 0.0 0.00 0.00 0.00 58 1010.8
20260505063030 63 0.0 0.0 0.00 0.00 0.00 61 1010.8
20260505062047 61 0.0 0.0 0.00 0.00 0.00 63 1010.9
20260505061045 58 0.0 0.0 0.00 0.00 0.00 68 1010.5
20260505060032 55 0.0 0.0 0.00 0.00 0.00 71 1010.4
20260505055034 54 0.0 0.0 0.00 0.00 0.00 75 1010.4
20260505054026 52 0.0 0.0 0.00 0.00 0.00 79 1010.7
20260505053112 50 0.0 0.0 0.00 0.00 0.00 82 1010.3
20260505052021 48 0.0 0.0 0.00 0.00 0.00 84 1010.3
20260505051028 47 0.0 0.0 0.00 0.00 0.00 84 1010.3
20260505041028 44 0.0 0.0 0.00 0.00 0.00 88 1010.3
20260505040026 44 0.0 0.0 0.00 0.00 0.00 88 1010.6
20260505035021 43 0.0 0.0 0.00 0.00 0.00 88 1010.6
20260505034028 43 0.0 0.0 0.00 0.00 0.00 88 1010.6
20260505033044 43 0.0 0.0 0.00 0.00 0.00 87 1010.3
20260505032020 43 0.0 0.0 0.00 0.00 0.00 87 1010.4
20260505031021 43 0.0 0.0 0.00 0.00 0.00 86 1010.7
20260505030045 44 0.0 0.0 0.00 0.00 0.00 86 1011.1
20260505025031 44 0.0 0.0 0.00 0.00 0.00 85 1011.1
20260505024023 44 0.0 0.0 0.00 0.00 0.00 85 1011.1
20260505023050 44 0.0 0.0 0.00 0.00 0.00 85 1011.1
20260505022052 45 0.0 0.0 0.00 0.00 0.00 84 1011.1
20260505021022 45 0.0 0.0 0.00 0.00 0.00 82 1010.8
20260505020032 46 0.0 0.0 0.00 0.00 0.00 82 1011.2
20260505015050 46 0.0 0.0 0.00 0.00 0.00 81 1011.2
20260505014036 47 0.0 0.0 0.00 0.00 0.00 80 1011.1
20260505013020 47 0.0 0.0 0.00 0.00 0.00 80 1011.2
20260505012049 47 0.0 0.0 0.00 0.00 0.00 80 1011.2
20260505011047 47 0.0 0.0 0.00 0.00 0.00 80 1011.2
20260505010050 47 0.0 0.0 0.00 0.00 0.00 79 1011.5
20260505005020 48 0.0 0.0 0.00 0.00 0.00 79 1011.5
20260505004037 48 0.0 0.0 0.00 0.00 0.00 80 1011.8
20260505003027 48 0.0 0.0 0.00 0.00 0.00 80 1011.8
20260505002026 48 0.0 0.0 0.00 0.00 0.00 79 1011.8
20260505001033 48 0.0 0.0 0.00 0.00 0.00 79 1012.1
20260505000031 48 0.0 0.0 0.00 0.00 0.00 79 1012.1
20260504235040 49 0.0 0.0 0.00 0.00 0.00 80 1012.1
20260504234059 49 0.0 0.0 0.00 0.00 0.00 79 1012.2
20260504233044 49 338 0.0 0.9 0.00 0.00 0.00 79 1012.2
20260504232020 50 0.0 0.0 0.00 0.00 0.00 78 1012.2
20260504231024 50 0.0 0.0 0.00 0.00 0.00 78 1012.5
20260504230028 50 0.0 0.0 0.00 0.00 0.00 76 1012.8
20260504225029 50 0.0 0.0 0.00 0.00 0.00 76 1012.8
20260504224019 50 0.0 0.0 0.00 0.00 0.00 76 1012.5
20260504223022 51 0.0 0.0 0.00 0.00 0.00 75 1012.9
20260504222052 51 0.0 0.0 0.00 0.00 0.00 76 1012.9
20260504221046 51 0.0 0.0 0.00 0.00 0.00 75 1012.8
20260504220544 51 0.0 0.0 0.00 0.00 0.00 74 1012.8
20260504215030 52 0.0 0.0 0.00 0.00 0.00 74 1012.8
20260504214033 52 0.0 0.0 0.00 0.00 0.00 74 1013.1
20260504213044 52 0.0 0.0 0.00 0.00 0.00 73 1013.1
20260504212045 53 0.0 0.0 0.00 0.00 0.00 72 1013.1
20260504211022 53 0.0 0.0 0.00 0.00 0.00 70 1013.2
20260504210024 53 0.0 0.0 0.00 0.00 0.00 69 1013.2
20260504205024 53 0.0 0.0 0.00 0.00 0.00 67 1013.2
20260504204024 55 0.0 0.0 0.00 0.00 0.00 66 1013.3
20260504203023 56 0.0 0.0 0.00 0.00 0.00 62 1013.3
20260504202029 56 0.0 0.0 0.00 0.00 0.00 61 1013.3
20260504201023 57 0.0 0.0 0.00 0.00 0.00 60 1013.3
20260504200025 58 0.0 0.0 0.00 0.00 0.00 58 1013.3
20260504195044 59 0.0 0.0 0.00 0.00 0.00 56 1013.3
20260504194041 60 0.0 0.0 0.00 0.00 0.00 55 1013.2
20260504193027 60 0.0 0.0 0.00 0.00 0.00 54 1013.3
20260504192042 60 0.0 0.0 0.00 0.00 0.00 53 1013.3
20260504191023 62 0.0 0.0 0.00 0.00 0.00 52 1013.4
20260504190026 63 0.0 0.0 0.00 0.00 0.00 49 1013.4
20260504185025 63 0.0 0.0 0.00 0.00 0.00 49 1013.4
20260504184023 63 0.0 0.0 0.00 0.00 0.00 49 1013.5
20260504183023 64 0.0 0.0 0.00 0.00 0.00 50 1013.1
20260504182023 64 0.0 0.0 0.00 0.00 0.00 49 1013.1
20260504181027 65 0.0 0.0 0.00 0.00 0.00 47 1013.0
20260504180051 67 0.0 0.0 0.00 0.00 0.00 46 1013.0
20260504175023 68 0.0 0.0 0.00 0.00 0.00 44 1013.0
20260504174115 69 0.0 0.0 0.00 0.00 0.00 43 1013.1
20260504173031 70 0.0 0.0 0.00 0.00 0.00 42 1013.1
20260504172043 71 168 0.0 0.0 0.00 0.00 0.00 40 1013.1
20260504171029 72 126 0.0 0.9 0.00 0.00 0.00 38 1013.0